| time (UTC) | temp F | wind direction | speed MPH | gust MPH | rain 1hr in | rain 24hr in | rain mn in | humidity % | barometer mb |
| 20260507121704 | 79 | 248 | 0.0 | 2.0 | 0.00 | 0.00 | 0.00 | 93 | 1016.2 |
| 20260507121204 | 77 | 266 | 0.0 | 2.0 | 0.00 | 0.00 | 0.00 | 94 | 1016.2 |
| 20260507120704 | 77 | 328 | 0.0 | 0.0 | 0.00 | 0.00 | 0.00 | 96 | 1016.2 |
| 20260507120203 | 76 | 328 | 0.0 | 0.0 | 0.00 | 0.00 | 0.00 | 96 | 1016.2 |
| 20260507114703 | 75 | 328 | 0.0 | 0.0 | 0.00 | 0.00 | 0.00 | 98 | 1016.2 |
| 20260507114204 | 75 | 328 | 0.0 | 0.0 | 0.00 | 0.00 | 0.00 | 99 | 1016.2 |
| 20260507113703 | 75 | 328 | 0.0 | 0.0 | 0.00 | 0.00 | 0.00 | 100 | 1016.2 |
| 20260507111704 | 74 | 332 | 0.0 | 0.0 | 0.00 | 0.00 | 0.00 | 100 | 1016.2 |
| 20260507111203 | 73 | 332 | 0.0 | 0.0 | 0.00 | 0.00 | 0.00 | 100 | 1016.2 |
| 20260507110704 | 71 | 332 | 0.0 | 0.0 | 0.00 | 0.00 | 0.00 | 100 | 1016.2 |
| 20260507110205 | 70 | 332 | 0.0 | 3.0 | 0.00 | 0.00 | 0.00 | 100 | 1016.2 |
| 20260507104705 | 69 | 316 | 0.0 | 3.0 | 0.00 | 0.00 | 0.00 | 100 | 1015.2 |
| 20260507104204 | 69 | 331 | 0.0 | 6.0 | 0.00 | 0.00 | 0.00 | 100 | 1015.2 |
| 20260507103703 | 69 | 300 | 3.0 | 6.0 | 0.00 | 0.00 | 0.00 | 100 | 1015.2 |
| 20260507103205 | 69 | 315 | 0.0 | 6.0 | 0.00 | 0.00 | 0.00 | 100 | 1015.2 |
| 20260507101704 | 69 | 294 | 5.0 | 6.0 | 0.00 | 0.00 | 0.00 | 100 | 1015.2 |
| 20260507100204 | 69 | 189 | 0.0 | 0.0 | 0.00 | 0.00 | 0.00 | 100 | 1014.2 |
| 20260507094704 | 69 | 148 | 0.0 | 3.0 | 0.00 | 0.00 | 0.00 | 100 | 1014.2 |
| 20260507094203 | 69 | 111 | 1.0 | 3.0 | 0.00 | 0.00 | 0.00 | 100 | 1014.2 |
| 20260507093704 | 69 | 127 | 1.0 | 2.0 | 0.00 | 0.00 | 0.00 | 100 | 1014.2 |
| 20260507093205 | 69 | 153 | 0.0 | 2.0 | 0.00 | 0.00 | 0.00 | 100 | 1014.2 |
| 20260507091704 | 69 | 209 | 0.0 | 0.0 | 0.00 | 0.00 | 0.00 | 100 | 1014.2 |
| 20260507091204 | 69 | 209 | 0.0 | 0.0 | 0.00 | 0.00 | 0.00 | 100 | 1014.2 |
| 20260507090205 | 69 | 209 | 0.0 | 3.0 | 0.00 | 0.00 | 0.00 | 100 | 1014.2 |
| 20260507084703 | 69 | 232 | 0.0 | 2.0 | 0.00 | 0.00 | 0.00 | 100 | 1014.2 |
| 20260507084204 | 69 | 71 | 0.0 | 2.0 | 0.00 | 0.00 | 0.00 | 100 | 1014.2 |
| 20260507083705 | 69 | 71 | 0.0 | 0.0 | 0.00 | 0.00 | 0.00 | 100 | 1014.2 |
| 20260507083203 | 69 | 71 | 0.0 | 0.0 | 0.00 | 0.00 | 0.00 | 100 | 1014.2 |
| 20260507080704 | 69 | 71 | 0.0 | 0.0 | 0.00 | 0.00 | 0.00 | 100 | 1014.2 |
| 20260507080204 | 70 | 71 | 0.0 | 2.0 | 0.00 | 0.00 | 0.00 | 100 | 1014.2 |
| 20260507074704 | 70 | 222 | 0.0 | 0.0 | 0.00 | 0.00 | 0.00 | 100 | 1014.2 |
| 20260507074204 | 70 | 222 | 0.0 | 0.0 | 0.00 | 0.00 | 0.00 | 100 | 1014.2 |
| 20260507073703 | 70 | 222 | 0.0 | 0.0 | 0.00 | 0.00 | 0.00 | 100 | 1014.2 |
| 20260507073203 | 70 | 222 | 0.0 | 0.0 | 0.00 | 0.00 | 0.00 | 100 | 1014.2 |
| 20260507071704 | 70 | 223 | 0.0 | 0.0 | 0.00 | 0.00 | 0.00 | 100 | 1015.2 |
| 20260507071205 | 70 | 222 | 0.0 | 0.0 | 0.00 | 0.00 | 0.00 | 100 | 1015.2 |
| 20260507070705 | 70 | 222 | 0.0 | 0.0 | 0.00 | 0.00 | 0.00 | 100 | 1015.2 |
| 20260507070204 | 70 | 223 | 0.0 | 0.0 | 0.00 | 0.00 | 0.00 | 100 | 1015.2 |
| 20260507063704 | 71 | 222 | 2.0 | 3.0 | 0.00 | 0.00 | 0.00 | 100 | 1015.2 |
| 20260507063203 | 71 | 223 | 0.0 | 3.0 | 0.00 | 0.00 | 0.00 | 99 | 1015.2 |
| 20260507061704 | 71 | 217 | 0.0 | 2.0 | 0.00 | 0.00 | 0.00 | 99 | 1015.2 |
| 20260507061204 | 71 | 217 | 0.0 | 3.0 | 0.00 | 0.00 | 0.00 | 98 | 1015.2 |
| 20260507060705 | 71 | 217 | 2.0 | 3.0 | 0.00 | 0.00 | 0.00 | 98 | 1015.2 |
| 20260507060205 | 72 | 216 | 1.0 | 2.0 | 0.00 | 0.00 | 0.00 | 97 | 1015.2 |
| 20260507054704 | 72 | 216 | 0.0 | 0.0 | 0.00 | 0.00 | 0.00 | 97 | 1015.2 |
| 20260507054204 | 72 | 217 | 1.0 | 3.0 | 0.00 | 0.00 | 0.00 | 97 | 1015.5 |
| 20260507053705 | 72 | 239 | 1.0 | 3.0 | 0.00 | 0.00 | 0.00 | 96 | 1016.2 |
| 20260507053204 | 72 | 236 | 0.0 | 3.0 | 0.00 | 0.00 | 0.00 | 96 | 1016.2 |
| 20260507051704 | 73 | 244 | 3.0 | 3.0 | 0.00 | 0.00 | 0.00 | 95 | 1016.2 |
| 20260507051204 | 73 | 226 | 0.0 | 3.0 | 0.00 | 0.00 | 0.00 | 95 | 1016.2 |
| 20260507050704 | 73 | 204 | 0.0 | 0.0 | 0.00 | 0.00 | 0.00 | 95 | 1016.2 |
| 20260507050203 | 73 | 176 | 0.0 | 3.0 | 0.00 | 0.00 | 0.00 | 95 | 1016.2 |
| 20260507044704 | 74 | 140 | 0.0 | 2.0 | 0.00 | 0.00 | 0.00 | 95 | 1016.2 |
| 20260507044204 | 74 | 127 | 0.0 | 3.0 | 0.00 | 0.00 | 0.00 | 94 | 1016.2 |
| 20260507043705 | 74 | 136 | 1.0 | 3.0 | 0.00 | 0.00 | 0.00 | 94 | 1016.2 |
| 20260507041703 | 74 | 134 | 1.0 | 3.0 | 0.00 | 0.00 | 0.00 | 94 | 1016.2 |
| 20260507041204 | 74 | 130 | 0.0 | 3.0 | 0.00 | 0.00 | 0.00 | 94 | 1016.2 |
| 20260507040204 | 74 | 131 | 3.0 | 3.0 | 0.00 | 0.00 | 0.00 | 94 | 1016.2 |
| 20260507033204 | 75 | 138 | 3.0 | 3.0 | 0.00 | 0.00 | 0.00 | 93 | 1016.2 |
| 20260507031704 | 75 | 133 | 2.0 | 3.0 | 0.00 | 0.00 | 0.00 | 90 | 1016.2 |
| 20260507031205 | 75 | 137 | 2.0 | 3.0 | 0.00 | 0.00 | 0.00 | 90 | 1016.2 |
| 20260507030704 | 76 | 134 | 3.0 | 5.0 | 0.00 | 0.00 | 0.00 | 89 | 1016.2 |
| 20260507030205 | 76 | 133 | 2.0 | 5.0 | 0.00 | 0.00 | 0.00 | 88 | 1016.2 |
| 20260507024705 | 76 | 156 | 3.0 | 5.0 | 0.00 | 0.00 | 0.00 | 87 | 1016.2 |
| 20260507024204 | 76 | 154 | 3.0 | 5.0 | 0.00 | 0.00 | 0.00 | 87 | 1016.2 |
| 20260507023703 | 76 | 156 | 2.0 | 3.0 | 0.00 | 0.00 | 0.00 | 87 | 1016.2 |
| 20260507023204 | 76 | 154 | 2.0 | 5.0 | 0.00 | 0.00 | 0.00 | 87 | 1016.2 |
| 20260507021705 | 76 | 120 | 3.0 | 5.0 | 0.00 | 0.00 | 0.00 | 86 | 1016.2 |
| 20260507020704 | 76 | 108 | 4.0 | 6.0 | 0.00 | 0.00 | 0.00 | 86 | 1016.2 |
| 20260507020204 | 77 | 123 | 3.0 | 5.0 | 0.00 | 0.00 | 0.00 | 85 | 1016.2 |
| 20260507014204 | 77 | 104 | 5.0 | 6.0 | 0.00 | 0.00 | 0.00 | 84 | 1016.2 |
| 20260507013704 | 77 | 113 | 4.0 | 6.0 | 0.00 | 0.00 | 0.00 | 82 | 1016.2 |
| 20260507013204 | 77 | 113 | 3.0 | 6.0 | 0.00 | 0.00 | 0.00 | 81 | 1016.2 |
| 20260507011704 | 77 | 122 | 3.0 | 5.0 | 0.00 | 0.00 | 0.00 | 79 | 1016.2 |
| 20260507010704 | 78 | 111 | 3.0 | 3.0 | 0.00 | 0.00 | 0.00 | 78 | 1016.2 |
| 20260507010204 | 78 | 116 | 2.0 | 3.0 | 0.00 | 0.00 | 0.00 | 78 | 1016.2 |
| 20260507004705 | 78 | 128 | 3.0 | 6.0 | 0.00 | 0.00 | 0.00 | 76 | 1016.2 |
| 20260507004204 | 78 | 128 | 2.0 | 6.0 | 0.00 | 0.00 | 0.00 | 76 | 1015.5 |
| 20260507003703 | 79 | 138 | 3.0 | 6.0 | 0.00 | 0.00 | 0.00 | 76 | 1015.2 |
| 20260507003204 | 79 | 119 | 3.0 | 6.0 | 0.00 | 0.00 | 0.00 | 75 | 1015.2 |
| 20260507001704 | 79 | 115 | 3.0 | 6.0 | 0.00 | 0.00 | 0.00 | 73 | 1016.2 |
| 20260507001204 | 80 | 123 | 3.0 | 6.0 | 0.00 | 0.00 | 0.00 | 72 | 1015.8 |
| 20260507000705 | 80 | 123 | 3.0 | 6.0 | 0.00 | 0.00 | 0.00 | 72 | 1015.2 |
| 20260507000212 | 80 | 121 | 5.0 | 8.0 | 0.00 | 0.00 | 0.00 | 72 | 1015.2 |
| 20260506234703 | 81 | 124 | 6.0 | 8.0 | 0.00 | 0.00 | 0.00 | 69 | 1015.2 |
| 20260506234204 | 81 | 113 | 6.0 | 9.0 | 0.00 | 0.00 | 0.00 | 69 | 1015.2 |
| 20260506233705 | 81 | 103 | 5.0 | 8.0 | 0.00 | 0.00 | 0.00 | 69 | 1015.2 |
| 20260506233203 | 82 | 108 | 5.0 | 10.0 | 0.00 | 0.00 | 0.00 | 68 | 1015.2 |
| 20260506231204 | 83 | 105 | 6.0 | 8.0 | 0.00 | 0.00 | 0.00 | 67 | 1015.2 |
| 20260506230704 | 83 | 115 | 3.0 | 9.0 | 0.00 | 0.00 | 0.00 | 67 | 1015.2 |
| 20260506230204 | 83 | 119 | 5.0 | 9.0 | 0.00 | 0.00 | 0.00 | 67 | 1015.2 |
| 20260506224205 | 84 | 128 | 5.0 | 9.0 | 0.00 | 0.00 | 0.00 | 66 | 1015.2 |
| 20260506223204 | 84 | 89 | 6.0 | 13.0 | 0.00 | 0.00 | 0.00 | 63 | 1015.2 |
| 20260506221705 | 85 | 81 | 6.0 | 9.0 | 0.00 | 0.00 | 0.00 | 62 | 1015.2 |
| 20260506221204 | 85 | 128 | 5.0 | 10.0 | 0.00 | 0.00 | 0.00 | 63 | 1015.2 |
| 20260506220205 | 85 | 115 | 6.0 | 12.0 | 0.00 | 0.00 | 0.00 | 60 | 1015.2 |
| 20260506214705 | 86 | 93 | 6.0 | 10.0 | 0.00 | 0.00 | 0.00 | 58 | 1015.2 |
| 20260506214204 | 86 | 102 | 7.0 | 10.0 | 0.00 | 0.00 | 0.00 | 59 | 1015.2 |
| 20260506213203 | 87 | 109 | 7.0 | 13.0 | 0.00 | 0.00 | 0.00 | 58 | 1015.2 |
| 20260506211705 | 87 | 102 | 7.0 | 10.0 | 0.00 | 0.00 | 0.00 | 58 | 1015.2 |
| 20260506211204 | 87 | 103 | 6.0 | 10.0 | 0.00 | 0.00 | 0.00 | 58 | 1015.2 |
| 20260506210703 | 88 | 82 | 7.0 | 9.0 | 0.00 | 0.00 | 0.00 | 59 | 1015.2 |
| 20260506204704 | 89 | 91 | 7.0 | 8.0 | 0.00 | 0.00 | 0.00 | 58 | 1015.2 |
| 20260506203204 | 89 | 108 | 7.0 | 12.0 | 0.00 | 0.00 | 0.00 | 56 | 1015.2 |
| 20260506201703 | 89 | 112 | 7.0 | 8.0 | 0.00 | 0.00 | 0.00 | 56 | 1015.2 |
| 20260506200705 | 89 | 101 | 6.0 | 9.0 | 0.00 | 0.00 | 0.00 | 56 | 1015.2 |
| 20260506200205 | 89 | 101 | 8.0 | 12.0 | 0.00 | 0.00 | 0.00 | 55 | 1015.2 |
| 20260506194704 | 90 | 88 | 7.0 | 9.0 | 0.00 | 0.00 | 0.00 | 52 | 1015.2 |
| 20260506194204 | 90 | 106 | 7.0 | 10.0 | 0.00 | 0.00 | 0.00 | 50 | 1015.2 |
| 20260506193705 | 90 | 106 | 7.0 | 13.0 | 0.00 | 0.00 | 0.00 | 53 | 1015.2 |
| 20260506193204 | 90 | 107 | 8.0 | 12.0 | 0.00 | 0.00 | 0.00 | 51 | 1015.2 |
| 20260506191704 | 91 | 111 | 6.0 | 9.0 | 0.00 | 0.00 | 0.00 | 51 | 1016.2 |
| 20260506190703 | 91 | 125 | 5.0 | 7.0 | 0.00 | 0.00 | 0.00 | 53 | 1016.2 |
| 20260506190204 | 91 | 124 | 7.0 | 10.0 | 0.00 | 0.00 | 0.00 | 54 | 1016.2 |
| 20260506184704 | 91 | 104 | 6.0 | 10.0 | 0.00 | 0.00 | 0.00 | 54 | 1016.2 |
| 20260506184203 | 91 | 113 | 5.0 | 10.0 | 0.00 | 0.00 | 0.00 | 55 | 1016.2 |
| 20260506183704 | 92 | 102 | 5.0 | 12.0 | 0.00 | 0.00 | 0.00 | 53 | 1016.2 |
| 20260506183204 | 91 | 128 | 6.0 | 12.0 | 0.00 | 0.00 | 0.00 | 52 | 1016.2 |
| 20260506181704 | 92 | 124 | 7.0 | 13.0 | 0.00 | 0.00 | 0.00 | 52 | 1016.2 |
| 20260506181204 | 92 | 110 | 6.0 | 9.0 | 0.00 | 0.00 | 0.00 | 53 | 1016.2 |
| 20260506180204 | 91 | 111 | 6.0 | 9.0 | 0.00 | 0.00 | 0.00 | 55 | 1016.2 |
| 20260506174704 | 92 | 115 | 7.0 | 9.0 | 0.00 | 0.00 | 0.00 | 55 | 1017.2 |
| 20260506174203 | 92 | 102 | 5.0 | 9.0 | 0.00 | 0.00 | 0.00 | 55 | 1017.2 |
| 20260506173703 | 92 | 97 | 5.0 | 10.0 | 0.00 | 0.00 | 0.00 | 53 | 1017.2 |
| 20260506171704 | 92 | 121 | 6.0 | 10.0 | 0.00 | 0.00 | 0.00 | 55 | 1016.2 |
| 20260506171205 | 91 | 143 | 6.0 | 8.0 | 0.00 | 0.00 | 0.00 | 56 | 1016.6 |
| 20260506170203 | 91 | 138 | 6.0 | 9.0 | 0.00 | 0.00 | 0.00 | 57 | 1017.2 |
| 20260506164704 | 91 | 124 | 5.0 | 9.0 | 0.00 | 0.00 | 0.00 | 57 | 1017.2 |
| 20260506164204 | 91 | 111 | 5.0 | 8.0 | 0.00 | 0.00 | 0.00 | 58 | 1017.2 |
| 20260506163704 | 91 | 93 | 6.0 | 9.0 | 0.00 | 0.00 | 0.00 | 58 | 1017.2 |
| 20260506163204 | 91 | 115 | 5.0 | 8.0 | 0.00 | 0.00 | 0.00 | 57 | 1017.2 |
| 20260506161204 | 90 | 93 | 5.0 | 8.0 | 0.00 | 0.00 | 0.00 | 57 | 1017.2 |
| 20260506160704 | 90 | 104 | 6.0 | 8.0 | 0.00 | 0.00 | 0.00 | 58 | 1017.2 |
| 20260506160204 | 90 | 114 | 7.0 | 9.0 | 0.00 | 0.00 | 0.00 | 58 | 1017.2 |
| 20260506154704 | 89 | 127 | 6.0 | 9.0 | 0.00 | 0.00 | 0.00 | 59 | 1017.2 |
| 20260506154204 | 88 | 118 | 5.0 | 8.0 | 0.00 | 0.00 | 0.00 | 62 | 1017.2 |
| 20260506153703 | 88 | 109 | 6.0 | 10.0 | 0.00 | 0.00 | 0.00 | 63 | 1017.2 |
| 20260506153205 | 89 | 114 | 6.0 | 9.0 | 0.00 | 0.00 | 0.00 | 65 | 1017.2 |
| 20260506151704 | 88 | 148 | 6.0 | 8.0 | 0.00 | 0.00 | 0.00 | 67 | 1017.2 |
| 20260506151205 | 88 | 120 | 6.0 | 8.0 | 0.00 | 0.00 | 0.00 | 66 | 1016.5 |
| 20260506150205 | 88 | 150 | 6.0 | 9.0 | 0.00 | 0.00 | 0.00 | 66 | 1016.2 |
| 20260506144704 | 87 | 106 | 5.0 | 8.0 | 0.00 | 0.00 | 0.00 | 69 | 1017.2 |
| 20260506144203 | 87 | 118 | 5.0 | 8.0 | 0.00 | 0.00 | 0.00 | 72 | 1017.2 |
| 20260506143705 | 87 | 102 | 5.0 | 7.0 | 0.00 | 0.00 | 0.00 | 72 | 1017.2 |
| 20260506143204 | 87 | 119 | 4.0 | 9.0 | 0.00 | 0.00 | 0.00 | 74 | 1017.2 |
| 20260506141703 | 85 | 116 | 5.0 | 8.0 | 0.00 | 0.00 | 0.00 | 77 | 1017.2 |
| 20260506140704 | 85 | 110 | 4.0 | 8.0 | 0.00 | 0.00 | 0.00 | 78 | 1017.2 |
| 20260506140204 | 84 | 105 | 5.0 | 8.0 | 0.00 | 0.00 | 0.00 | 82 | 1017.2 |
| 20260506134704 | 84 | 150 | 4.0 | 6.0 | 0.00 | 0.00 | 0.00 | 84 | 1017.2 |
| 20260506133704 | 83 | 144 | 3.0 | 6.0 | 0.00 | 0.00 | 0.00 | 85 | 1016.2 |
| 20260506133204 | 83 | 102 | 4.0 | 7.0 | 0.00 | 0.00 | 0.00 | 84 | 1016.2 |
| 20260506131704 | 84 | 105 | 3.0 | 7.0 | 0.00 | 0.00 | 0.00 | 79 | 1016.2 |
| 20260506131205 | 83 | 120 | 5.0 | 8.0 | 0.00 | 0.00 | 0.00 | 83 | 1016.2 |
| 20260506130704 | 81 | 121 | 4.0 | 6.0 | 0.00 | 0.00 | 0.00 | 87 | 1016.2 |
| 20260506124703 | 82 | 89 | 3.0 | 6.0 | 0.00 | 0.00 | 0.00 | 89 | 1016.2 |
| 20260506124203 | 81 | 116 | 3.0 | 6.0 | 0.00 | 0.00 | 0.00 | 98 | 1016.2 |
| 20260506123205 | 78 | 127 | 3.0 | 5.0 | 0.00 | 0.00 | 0.00 | 100 | 1016.2 |